Texarkana, AR

10:07 PM CST on November 13, 2019 (GMT -0600)
Texarkana Regional-Webb

Weather History for KTXK - October, 2019

Change the Weather History Date:

Sunday, October 20, 2019

  Actual Average Record
Temperature  
Mean Temperature 71 °F 63 °F  
Max Temperature 83 °F 75 °F 94 °F (1927)
Min Temperature 59 °F 52 °F 27 °F (1989)
Degree Days  
Heating Degree Days 0 4  
Month to date heating degree days 57 48  
Since 1 July heating degree days 57 59  
Cooling Degree Days 6 2  
Month to date cooling degree days 120 76  
Year to date cooling degree days 2466 2170  
Growing Degree Days 20 (Base 50)    
Moisture  
Dew Point 62 °F    
Average Humidity 76    
Maximum Humidity 100    
Minimum Humidity 51    
Precipitation  
Precipitation 0.00 in 0.18 in 2.22 in (1984)
Month to date precipitation 2.70 3.11  
Year to date precipitation 45.23 37.96  
Snow  
Snow 0.00 in - - ()
Month to date snowfall 0.0  
Since 1 July snowfall 0.0  
Since 1 September snowfall 0.0  
Snow Depth 0.00 in    
Sea Level Pressure  
Sea Level Pressure 29.78 in    
Wind  
Wind Speed 6 mph (ESE)    
Max Wind Speed 20 mph    
Max Gust Speed 30 mph    
Visibility 4 miles    
Events Fog    
T = Trace of Precipitation, MM = Missing Value Source: NWS Daily Summary

Daily Weather History Graph

Daily Weather History Graph

Search for Another Location

Airport or City:

Astronomy

Oct. 20, 2019 Rise Set
Actual Time 7:24 AM CDT 6:36 PM CDT
Civil Twilight 6:59 AM CDT 7:01 PM CDT
Nautical Twilight 6:30 AM CDT 7:30 PM CDT
Astronomical Twilight 6:01 AM CDT 7:59 PM CDT
Moon 11:57 PM CDT (10/20) 1:41 PM CDT (10/20)
Length of Visible Light 12h 02m
Length of Day
11h 12m
Waning Gibbous, 59% of the Moon is Illuminated
Oct 20
Waning Gibbous
Oct 21
Last Quarter
Oct 27
New
Nov 4
First Quarter
Nov 12
Full

Hourly Weather History & Observations

Time (CDT) Temp. Heat Index Dew Point Humidity Pressure Visibility Wind Dir Wind Speed Gust Speed Precip Events Conditions
12:39 AM 63.0 °F - 62.1 °F 97% 29.77 in 1.8 mi ENE 3.5 mph - N/A   Clear
12:49 AM 64.4 °F - 62.6 °F 94% 29.77 in 3.0 mi Calm Calm - N/A   Clear
12:53 AM 64.0 °F - 62.1 °F 93% 29.77 in 6.0 mi Calm Calm - N/A   Clear
1:19 AM 62.1 °F - 61.0 °F 96% 29.78 in 2.5 mi Calm Calm - N/A   Clear
1:27 AM 63.0 °F - 62.1 °F 97% 29.78 in 1.2 mi Calm Calm - N/A   Partly Cloudy
1:42 AM 63.0 °F - 62.1 °F 97% 29.78 in 2.5 mi Calm Calm - N/A   Mostly Cloudy
1:49 AM 62.6 °F - 60.8 °F 94% 29.78 in 4.0 mi Calm Calm - N/A   Scattered Clouds
1:53 AM 62.1 °F - 61.0 °F 96% 29.77 in 3.0 mi Calm Calm - N/A   Scattered Clouds
2:53 AM 63.0 °F - 61.0 °F 93% 29.77 in 6.0 mi Calm Calm - N/A   Mostly Cloudy
3:34 AM 63.0 °F - 62.1 °F 97% 29.77 in 7.0 mi ENE 3.5 mph - N/A   Mostly Cloudy
3:44 AM 62.1 °F - 61.0 °F 96% 29.77 in 5.0 mi NE 4.6 mph - N/A   Mostly Cloudy
3:53 AM 62.1 °F - 61.0 °F 96% 29.76 in 3.0 mi Calm Calm - N/A   Scattered Clouds
4:41 AM 60.1 °F - 60.1 °F 100% 29.78 in 1.8 mi Calm Calm - N/A   Clear
4:47 AM 60.8 °F - 60.8 °F 100% 29.78 in 0.8 mi Calm Calm - N/A   Clear
4:48 AM 60.1 °F - 59.0 °F 96% 29.77 in 0.8 mi Calm Calm - N/A   Clear
4:54 AM 61.0 °F - 60.1 °F 97% 29.78 in 1.5 mi Calm Calm - N/A   Clear
5:17 AM 60.1 °F - 60.1 °F 100% 29.79 in 1.0 mi Calm Calm - N/A   Clear
5:34 AM 60.1 °F - 59.0 °F 96% 29.79 in 2.0 mi Calm Calm - N/A   Clear
5:43 AM 60.1 °F - 59.0 °F 96% 29.79 in 1.2 mi Calm Calm - N/A   Clear
5:53 AM 59.0 °F - 57.9 °F 96% 29.78 in 1.5 mi NE 3.5 mph - N/A   Clear
5:58 AM 59.0 °F - 57.9 °F 96% 29.79 in 2.0 mi NE 4.6 mph - N/A   Partly Cloudy
6:00 AM 59.0 °F - 57.9 °F 96% 29.79 in 1.0 mi NE 4.6 mph - N/A   Mist
6:06 AM 59.0 °F - 59.0 °F 100% 29.79 in 0.2 mi NE 4.6 mph - N/A Fog Fog
6:21 AM 60.1 °F - 60.1 °F 100% 29.80 in 0.5 mi NE 3.5 mph - N/A Fog Fog
6:38 AM 59.0 °F - 59.0 °F 100% 29.80 in 0.8 mi NE 3.5 mph - N/A   Mist
6:46 AM 60.1 °F - 59.0 °F 96% 29.80 in 1.0 mi NNE 3.5 mph - N/A   Overcast
6:53 AM 59.0 °F - 59.0 °F 100% 29.79 in 0.8 mi NE 3.5 mph - N/A   Overcast
7:05 AM 60.1 °F - 59.0 °F 96% 29.80 in 1.8 mi Calm Calm - N/A   Mostly Cloudy
7:11 AM 60.1 °F - 59.0 °F 96% 29.80 in 2.5 mi East 3.5 mph - N/A   Scattered Clouds
7:20 AM 60.1 °F - 59.0 °F 96% 29.81 in 3.0 mi Calm Calm - N/A   Mostly Cloudy
7:26 AM 59.0 °F - 59.0 °F 100% 29.81 in 1.8 mi Calm Calm - N/A   Mostly Cloudy
7:29 AM 59.0 °F - 59.0 °F 100% 29.80 in 0.8 mi Calm Calm - N/A   Mist
7:40 AM 59.0 °F - 59.0 °F 100% 29.80 in 0.2 mi Calm Calm - N/A Fog Fog
7:53 AM 59.0 °F - 59.0 °F 100% 29.80 in 0.8 mi Calm Calm - N/A   Mostly Cloudy
7:58 AM 59.0 °F - 59.0 °F 100% 29.80 in 1.5 mi Calm Calm - N/A   Mostly Cloudy
8:07 AM 60.1 °F - 59.0 °F 96% 29.80 in 0.8 mi Calm Calm - N/A   Mostly Cloudy
8:31 AM 61.0 °F - 60.1 °F 97% 29.81 in 1.0 mi Calm Calm - N/A   Mist
8:40 AM 61.0 °F - 61.0 °F 100% 29.81 in 2.0 mi Calm Calm - N/A   Mostly Cloudy
8:50 AM 62.6 °F - 60.8 °F 94% 29.81 in 1.2 mi Calm Calm - N/A   Mostly Cloudy
8:53 AM 62.1 °F - 61.0 °F 96% 29.81 in 0.8 mi Calm Calm - N/A   Mostly Cloudy
9:15 AM 63.0 °F - 62.1 °F 97% 29.82 in 1.0 mi Calm Calm - N/A   Mist
9:21 AM 63.0 °F - 62.1 °F 97% 29.82 in 2.0 mi NNE 3.5 mph - N/A   Mostly Cloudy
9:25 AM 63.0 °F - 62.1 °F 97% 29.82 in 3.0 mi NE 3.5 mph - N/A   Scattered Clouds
9:53 AM 66.0 °F - 64.0 °F 93% 29.82 in 6.0 mi Calm Calm - N/A   Clear
10:53 AM 73.0 °F - 66.9 °F 81% 29.82 in 10.0 mi South 5.8 mph - N/A   Mostly Cloudy
11:34 AM 72.0 °F - 66.9 °F 84% 29.83 in 9.0 mi South 6.9 mph - N/A   Overcast
11:53 AM 71.1 °F - 66.9 °F 87% 29.82 in 8.0 mi South 8.1 mph - N/A   Overcast
12:53 PM 75.0 °F - 66.9 °F 76% 29.80 in 9.0 mi SSW 8.1 mph - N/A   Overcast
1:23 PM 75.9 °F - 66.9 °F 74% 29.80 in 10.0 mi South 6.9 mph - N/A   Scattered Clouds
1:37 PM 75.9 °F - 66.9 °F 74% 29.79 in 10.0 mi South 5.8 mph - N/A   Partly Cloudy
1:53 PM 77.0 °F - 66.9 °F 71% 29.78 in 10.0 mi Variable 5.8 mph - N/A   Clear
2:53 PM 80.1 °F 81.7 °F 64.0 °F 58% 29.75 in 10.0 mi SSW 8.1 mph - N/A   Clear
3:53 PM 82.0 °F 83.1 °F 63.0 °F 52% 29.73 in 10.0 mi SSE 8.1 mph - N/A   Clear
4:53 PM 82.0 °F 83.1 °F 63.0 °F 52% 29.72 in 10.0 mi SSE 8.1 mph - N/A   Clear
5:53 PM 80.1 °F 82.1 °F 66.0 °F 62% 29.70 in 10.0 mi SE 3.5 mph - N/A   Clear
6:53 PM 75.0 °F - 64.9 °F 71% 29.69 in 10.0 mi SSE 3.5 mph - N/A   Clear
7:53 PM 73.9 °F - 64.0 °F 71% 29.70 in 10.0 mi SE 5.8 mph - N/A   Clear
8:53 PM 73.0 °F - 64.9 °F 76% 29.70 in 10.0 mi SE 4.6 mph - N/A   Partly Cloudy
9:53 PM 77.0 °F - 66.9 °F 71% 29.68 in 10.0 mi South 13.8 mph 21.9 mph N/A   Scattered Clouds
10:53 PM 73.9 °F - 66.0 °F 76% 29.68 in 10.0 mi SSW 15.0 mph - N/A   Clear
11:53 PM 75.0 °F - 64.0 °F 69% 29.67 in 10.0 mi South 11.5 mph - N/A   Overcast